• In Österreich
  • Länderverzeichnis
  • Für 7 Tage
  • Wassertemperatur
  • Satellitenkarten
  • Wetterkarte
  • News
  • Widgets
  • user-avatar
    Anmelden

    Stündliche Wetter Saurimo

    Heute, 22 Oktober, Sonntag

    Zeit Temperatur Niederschläge Wind Luftdruck Luftfeuchtigkeit
    00:00 +23°C° 1,2 mm 1 m/S 670 mmHg 87%
    01:00 +23°C° 0 mm 1 m/S 670 mmHg 90%
    02:00 +22°C° 0,5 mm 1 m/S 670 mmHg 91%
    03:00 +22°C° 0,5 mm 1 m/S 670 mmHg 91%
    04:00 +22°C° 0,5 mm 1 m/S 670 mmHg 92%
    05:00 +23°C° 0,4 mm 1 m/S 671 mmHg 89%
    06:00 +23°C° 0,4 mm 2 m/S 671 mmHg 86%
    07:00 +24°C° 0 mm 2 m/S 672 mmHg 82%
    08:00 +26°C° 0,9 mm 2 m/S 672 mmHg 75%
    09:00 +28°C° 0,9 mm 2 m/S 672 mmHg 69%
    10:00 +29°C° 0,9 mm 2 m/S 672 mmHg 63%
    11:00 +31°C° 0,1 mm 1 m/S 672 mmHg 56%
    12:00 +32°C° 0,1 mm 1 m/S 672 mmHg 49%
    13:00 +31°C° 0,1 mm 0 m/S 671 mmHg 42%
    14:00 +31°C° 0 mm 0 m/S 671 mmHg 42%
    15:00 +30°C° 0 mm 0 m/S 670 mmHg 43%
    16:00 +32°C° 0 mm 1 m/S 670 mmHg 44%
    17:00 +30°C° 0 mm 1 m/S 670 mmHg 50%
    18:00 +28°C° 0 mm 1 m/S 669 mmHg 56%
    19:00 +25°C° 0 mm 1 m/S 669 mmHg 62%
    20:00 +24°C° 0,6 mm 1 m/S 670 mmHg 70%
    21:00 +23°C° 0,6 mm 2 m/S 670 mmHg 78%
    22:00 +21°C° 0,6 mm 2 m/S 671 mmHg 86%
    23:00 +21°C° 0,1 mm 2 m/S 670 mmHg 88%

    Morgen, 23 Oktober, Montag

    Zeit Temperatur Niederschläge Wind Luftdruck Luftfeuchtigkeit
    00:00 +21°C° 0,1 mm 2 m/S 670 mmHg 91%
    01:00 +21°C° 0,1 mm 2 m/S 669 mmHg 93%
    02:00 +21°C° 0 mm 1 m/S 669 mmHg 93%
    03:00 +21°C° 0 mm 1 m/S 669 mmHg 94%
    04:00 +21°C° 0 mm 1 m/S 668 mmHg 94%
    05:00 +22°C° 0 mm 1 m/S 669 mmHg 88%
    06:00 +24°C° 0 mm 1 m/S 670 mmHg 82%
    07:00 +25°C° 0 mm 1 m/S 670 mmHg 76%
    08:00 +29°C° 0 mm 1 m/S 671 mmHg 62%
    09:00 +33°C° 0 mm 1 m/S 672 mmHg 48%
    10:00 +37°C° 0 mm 1 m/S 672 mmHg 34%
    11:00 +36°C° 0 mm 1 m/S 672 mmHg 33%
    12:00 +35°C° 0 mm 1 m/S 671 mmHg 33%
    13:00 +35°C° 0 mm 2 m/S 670 mmHg 32%
    14:00 +34°C° 0 mm 2 m/S 669 mmHg 36%
    15:00 +32°C° 0 mm 2 m/S 669 mmHg 39%
    16:00 +31°C° 0 mm 2 m/S 668 mmHg 43%
    17:00 +30°C° 0 mm 2 m/S 669 mmHg 48%
    18:00 +28°C° 0 mm 1 m/S 669 mmHg 52%
    19:00 +27°C° 0 mm 1 m/S 669 mmHg 57%
    20:00 +26°C° 0 mm 1 m/S 669 mmHg 60%
    21:00 +25°C° 0 mm 1 m/S 669 mmHg 64%
    22:00 +25°C° 0 mm 1 m/S 669 mmHg 67%
    23:00 +24°C° 0 mm 1 m/S 669 mmHg 69%

    übermorgen, 24 Oktober, Dienstag

    Zeit Temperatur Niederschläge Wind Luftdruck Luftfeuchtigkeit
    00:00 +24°C° 0 mm 1 m/S 669 mmHg 70%
    01:00 +24°C° 0 mm 1 m/S 668 mmHg 72%
    02:00 +24°C° 0 mm 1 m/S 668 mmHg 71%
    03:00 +24°C° 0 mm 1 m/S 668 mmHg 69%
    04:00 +24°C° 0 mm 1 m/S 668 mmHg 68%
    05:00 +25°C° 0 mm 1 m/S 669 mmHg 66%
    06:00 +25°C° 0 mm 1 m/S 670 mmHg 64%
    07:00 +26°C° 0 mm 1 m/S 670 mmHg 61%
    08:00 +29°C° 0 mm 2 m/S 671 mmHg 53%
    09:00 +32°C° 0 mm 2 m/S 672 mmHg 45%
    10:00 +35°C° 0 mm 2 m/S 672 mmHg 37%
    11:00 +35°C° 0 mm 1 m/S 671 mmHg 35%
    12:00 +36°C° 0 mm 1 m/S 671 mmHg 33%
    13:00 +36°C° 0 mm 1 m/S 670 mmHg 31%
    14:00 +34°C° 0 mm 1 m/S 669 mmHg 35%
    15:00 +33°C° 0 mm 1 m/S 669 mmHg 40%
    16:00 +31°C° 0 mm 2 m/S 668 mmHg 44%
    17:00 +29°C° 0,7 mm 2 m/S 669 mmHg 55%
    18:00 +26°C° 0,7 mm 3 m/S 669 mmHg 66%
    19:00 +24°C° 0,7 mm 3 m/S 669 mmHg 76%
    20:00 +24°C° 2 mm 2 m/S 669 mmHg 80%
    21:00 +23°C° 2 mm 2 m/S 670 mmHg 84%
    22:00 +23°C° 2 mm 1 m/S 670 mmHg 88%
    23:00 +22°C° 0,5 mm 1 m/S 670 mmHg 87%

    25 Oktober, Mittwoch

    Zeit Temperatur Niederschläge Wind Luftdruck Luftfeuchtigkeit
    00:00 +22°C° 0,5 mm 1 m/S 669 mmHg 86%
    01:00 +22°C° 0,5 mm 1 m/S 669 mmHg 85%
    02:00 +22°C° 0 mm 1 m/S 669 mmHg 85%
    03:00 +22°C° 0 mm 1 m/S 669 mmHg 84%
    04:00 +22°C° 0 mm 1 m/S 668 mmHg 84%
    05:00 +23°C° 0 mm 1 m/S 669 mmHg 82%
    06:00 +24°C° 0 mm 1 m/S 670 mmHg 79%
    07:00 +24°C° 0 mm 2 m/S 670 mmHg 77%
    08:00 +27°C° 0 mm 2 m/S 671 mmHg 65%
    09:00 +30°C° 0 mm 2 m/S 671 mmHg 54%
    10:00 +34°C° 0 mm 2 m/S 672 mmHg 42%
    11:00 +36°C° 0 mm 2 m/S 671 mmHg 38%
    12:00 +36°C° 0 mm 1 m/S 671 mmHg 33%
    13:00 +39°C° 0 mm 1 m/S 670 mmHg 29%
    14:00 +37°C° 0 mm 1 m/S 669 mmHg 31%
    15:00 +36°C° 0 mm 1 m/S 669 mmHg 33%
    16:00 +34°C° 0 mm 1 m/S 669 mmHg 35%
    17:00 +32°C° 0 mm 1 m/S 669 mmHg 40%
    18:00 +30°C° 0 mm 1 m/S 669 mmHg 44%
    19:00 +28°C° 0 mm 1 m/S 669 mmHg 48%
    20:00 +27°C° 0 mm 1 m/S 669 mmHg 52%
    21:00 +27°C° 0 mm 1 m/S 669 mmHg 55%
    22:00 +26°C° 0 mm 1 m/S 669 mmHg 58%
    23:00 +25°C° 0,1 mm 1 m/S 669 mmHg 62%

    26 Oktober, Donnerstag

    Zeit Temperatur Niederschläge Wind Luftdruck Luftfeuchtigkeit
    00:00 +24°C° 0,1 mm 1 m/S 668 mmHg 67%
    01:00 +24°C° 0,1 mm 1 m/S 668 mmHg 71%
    02:00 +23°C° 0,5 mm 1 m/S 668 mmHg 77%
    03:00 +22°C° 0,5 mm 1 m/S 668 mmHg 82%
    04:00 +22°C° 0,5 mm 1 m/S 669 mmHg 88%
    05:00 +22°C° 0,4 mm 1 m/S 670 mmHg 88%
    06:00 +23°C° 0,4 mm 2 m/S 670 mmHg 88%
    07:00 +23°C° 0,4 mm 2 m/S 671 mmHg 88%
    08:00 +25°C° 0,6 mm 2 m/S 671 mmHg 78%
    09:00 +28°C° 0,6 mm 2 m/S 671 mmHg 68%
    10:00 +30°C° 0,6 mm 2 m/S 672 mmHg 58%
    11:00 +31°C° 0 mm 2 m/S 671 mmHg 51%
    12:00 +34°C° 0 mm 2 m/S 670 mmHg 44%
    13:00 +36°C° 0 mm 2 m/S 669 mmHg 37%
    14:00 +35°C° 0 mm 2 m/S 669 mmHg 40%
    15:00 +34°C° 0 mm 2 m/S 669 mmHg 42%
    16:00 +32°C° 0 mm 2 m/S 668 mmHg 45%
    17:00 +31°C° 0,1 mm 2 m/S 669 mmHg 51%
    18:00 +29°C° 0,1 mm 2 m/S 669 mmHg 57%
    19:00 +27°C° 0,1 mm 2 m/S 669 mmHg 63%
    20:00 +26°C° 0,1 mm 2 m/S 669 mmHg 68%
    21:00 +25°C° 0,1 mm 2 m/S 669 mmHg 73%
    22:00 +24°C° 0,1 mm 2 m/S 669 mmHg 77%
    23:00 +23°C° 1,5 mm 2 m/S 669 mmHg 82%

    27 Oktober, Freitag

    Zeit Temperatur Niederschläge Wind Luftdruck Luftfeuchtigkeit
    00:00 +22°C° 1,5 mm 1 m/S 668 mmHg 88%
    01:00 +22°C° 1,5 mm 1 m/S 668 mmHg 93%
    02:00 +22°C° 4,1 mm 1 m/S 669 mmHg 93%
    03:00 +21°C° 4,1 mm 2 m/S 669 mmHg 93%
    04:00 +21°C° 4,1 mm 2 m/S 669 mmHg 93%
    05:00 +21°C° 1 mm 2 m/S 670 mmHg 93%
    06:00 +21°C° 1 mm 2 m/S 670 mmHg 92%
    07:00 +22°C° 1 mm 1 m/S 671 mmHg 92%
    08:00 +23°C° 0,2 mm 2 m/S 671 mmHg 89%
    09:00 +24°C° 0,2 mm 2 m/S 671 mmHg 85%
    10:00 +24°C° 0,2 mm 3 m/S 671 mmHg 82%
    11:00 +26°C° 0 mm 3 m/S 670 mmHg 72%
    12:00 +28°C° 0 mm 3 m/S 670 mmHg 63%
    13:00 +29°C° 0 mm 3 m/S 669 mmHg 53%
    14:00 +29°C° 0 mm 3 m/S 669 mmHg 53%
    15:00 +30°C° 0 mm 2 m/S 669 mmHg 53%
    16:00 +30°C° 0 mm 2 m/S 669 mmHg 53%
    17:00 +28°C° 0 mm 2 m/S 669 mmHg 61%
    18:00 +26°C° 0 mm 2 m/S 669 mmHg 70%
    19:00 +24°C° 0 mm 2 m/S 669 mmHg 78%
    20:00 +23°C° 0 mm 1 m/S 669 mmHg 81%
    21:00 +22°C° 0 mm 1 m/S 669 mmHg 85%
    22:00 +22°C° 0 mm 1 m/S 669 mmHg 89%
    23:00 +21°C° 0,2 mm 1 m/S 668 mmHg 89%
    Mehr zeigen